Theta_e
318 318 318 317 317 316 316 315 314 314 313 313 313 312 311 310 310 309 309 308 308 308 308 307 307 306 305 305 304 304 304 304 303 303 303 303 303 303 303 303 303 303 303 303 303 303 303 303 303 303 303 303 303 303 303 303 303 303 303 303 302 302 302 302 302 302 302 301 302 302 302 302 302 301 301 301 301 301 301 301 301 301 301 301 301 301
318 317 317 317 317 316 315 314 314 313 313 313 312 311 310 309 309 309 308 308 308 308 307 307 306 305 305 304 304 304 304 304 303 303 303 303 303 303 302 302 302 302 302 302 302 302 302 302 302 302 302 302 302 302 302 302 302 302 302 301 301 301 301 301 301 300 300 300 300 299 299 299 299 298 298 298 298 299 299 299 299 300 300 300 300 301
318 318 317 317 316 315 314 313 313 313 312 312 312 311 310 309 308 308 308 308 308 307 307 306 305 305 304 304 304 304 304 303 303 303 303 302 302 302 302 302 302 302 302 302 302 302 302 302 301 301 301 301 301 301 301 300 300 300 300 300 299 299 299 298 298 297 297 297 296 296 295 295 295 295 295 295 296 296 296 296 297 297 298 299 299 300
318 318 317 316 315 314 313 313 313 312 312 312 311 310 309 309 308 308 308 308 307 307 306 305 304 304 304 304 303 303 303 303 303 302 302 302 302 301 301 301 301 301 301 301 301 301 300 300 300 300 300 299 299 299 298 298 298 297 297 297 296 296 295 294 294 293 293 293 292 292 292 292 292 292 292 292 293 293 294 294 294 295 296 297 298 298
318 317 317 316 315 314 313 313 312 312 312 311 311 310 309 308 308 308 308 307 307 306 305 304 304 304 303 303 303 303 303 302 302 302 302 301 301 301 300 300 300 300 299 299 299 299 298 298 298 297 297 296 296 295 295 295 294 294 293 293 293 292 292 291 291 290 290 290 290 289 289 289 289 289 290 290 290 291 291 291 292 292 293 294 295 296
317 317 316 315 315 314 313 313 312 312 311 311 310 310 309 308 308 307 307 307 306 305 304 304 303 303 303 303 303 303 302 302 302 302 301 301 300 300 299 299 298 298 297 297 296 296 295 295 294 294 293 293 293 292 292 292 291 291 291 290 290 290 289 289 289 289 289 289 289 289 289 289 289 289 289 289 289 289 289 290 290 290 291 292 293 294
317 317 316 315 315 314 313 312 311 311 311 310 310 309 309 308 307 307 307 306 305 304 304 303 303 303 303 302 302 302 302 302 301 301 300 300 299 298 298 297 296 295 295 294 293 293 292 292 292 291 291 291 291 290 290 290 290 290 289 289 289 289 289 289 289 289 289 289 289 289 289 288 288 288 288 289 289 289 289 289 289 289 289 290 290 291
316 316 315 315 314 313 312 311 311 311 310 310 310 309 308 308 307 307 306 305 304 304 303 303 303 302 302 302 302 301 301 301 300 299 299 298 297 296 295 294 294 293 292 292 291 291 291 290 290 290 290 290 290 289 289 289 289 289 289 289 289 289 289 289 289 289 289 289 289 288 288 288 288 288 288 288 288 288 288 288 288 289 289 289 289 290
314 314 314 314 313 312 311 311 310 310 310 309 309 308 308 307 307 306 305 304 304 303 303 303 303 302 302 301 301 300 300 299 298 297 296 295 294 293 293 292 291 291 290 290 290 290 290 289 289 289 289 289 289 289 289 289 289 289 289 289 289 289 289 289 289 289 288 288 288 288 288 288 288 288 288 288 288 288 288 288 288 288 288 288 288 289
312 312 312 312 312 311 310 310 310 310 309 309 308 308 307 307 306 305 304 304 303 303 303 303 302 302 301 301 300 299 298 297 296 295 294 293 292 291 291 290 290 290 289 289 289 289 289 289 289 289 289 289 289 289 289 289 288 288 288 288 289 289 289 289 288 288 288 288 288 288 288 288 288 288 288 288 288 288 288 288 288 288 288 288 288 288
311 311 311 311 311 310 309 309 309 309 308 308 307 307 306 306 305 304 304 303 303 302 302 302 301 301 300 299 298 297 296 295 294 293 292 291 291 290 290 289 289 289 289 289 289 289 289 289 289 289 289 289 289 288 288 288 288 288 288 288 288 288 288 288 288 288 288 288 288 288 288 288 288 288 288 288 288 288 288 288 288 288 288 288 288 288
311 310 310 310 310 309 309 308 308 308 308 307 307 306 306 305 304 304 303 302 302 302 301 301 300 299 298 297 296 295 294 293 292 291 291 290 290 289 289 289 289 288 288 288 288 288 288 288 288 289 289 288 288 288 288 288 288 288 288 288 288 288 288 288 288 288 288 288 288 288 288 288 288 288 287 287 287 287 287 287 287 287 287 287 287 287
310 309 309 309 308 308 308 308 307 307 307 306 306 306 306 305 303 303 302 301 301 301 300 300 299 298 297 295 294 293 292 291 291 290 290 290 289 289 289 288 288 288 288 288 288 288 288 288 288 288 288 288 288 288 288 288 288 288 288 288 288 288 288 288 288 288 288 288 288 288 288 288 288 288 288 288 287 287 287 287 287 287 287 287 287 287
309 308 308 308 307 307 307 307 307 306 306 306 306 305 304 303 302 302 301 301 300 300 299 298 297 296 295 293 292 292 291 290 290 290 289 289 289 289 288 288 288 288 288 288 288 288 288 288 288 288 288 288 288 288 288 288 288 288 288 288 288 289 288 288 288 288 288 288 288 288 288 288 288 288 288 288 287 287 287 287 287 287 287 287 287 287
308 308 307 307 307 307 306 306 306 306 305 305 305 304 303 302 301 301 300 300 299 299 298 297 295 294 293 292 291 291 290 290 289 289 289 289 289 288 288 288 288 288 288 289 288 288 288 288 288 288 288 288 288 288 288 288 288 288 288 288 289 289 289 288 288 288 288 288 288 288 288 288 288 288 288 287 287 287 287 287 287 287 287 287 287 287
307 307 307 307 307 306 306 305 305 305 305 304 304 303 302 301 301 300 300 299 298 297 296 295 293 292 292 291 291 290 290 289 289 289 289 289 288 288 288 288 288 288 289 289 289 288 288 288 288 288 288 288 288 288 288 288 288 288 288 288 288 289 289 288 288 288 288 288 288 288 288 288 288 288 287 287 287 287 287 287 287 287 287 287 287 287
306 306 306 306 305 305 305 305 304 304 304 303 303 302 301 301 300 300 299 298 297 295 294 292 291 291 291 290 290 290 290 290 289 289 289 288 288 288 288 288 288 289 289 289 288 288 288 288 288 288 288 288 288 288 288 288 288 288 288 288 288 288 289 288 288 288 288 288 288 288 288 288 288 288 288 288 288 288 288 288 288 288 288 288 288 288
305 305 305 305 304 304 304 304 304 303 303 302 302 301 300 300 299 298 297 296 294 293 291 291 290 290 290 289 289 289 289 289 289 289 288 288 288 288 288 288 288 288 288 288 288 288 288 288 288 288 288 288 288 288 288 288 288 288 288 288 288 288 289 289 289 289 288 288 288 288 288 288 288 288 288 288 288 288 288 288 288 288 288 288 288 288
304 304 303 303 303 303 303 303 302 302 301 301 300 300 299 298 297 296 295 293 292 291 290 289 289 289 288 288 289 289 289 288 288 288 288 288 288 288 288 288 288 288 288 288 288 288 288 288 288 288 288 288 288 288 288 288 288 288 288 288 288 289 289 289 289 289 289 289 289 288 288 288 288 288 288 288 288 288 288 288 288 288 288 288 288 288
302 302 302 302 302 302 301 301 300 300 299 298 298 297 296 295 294 293 292 291 290 289 289 288 288 288 288 288 288 288 288 288 288 288 288 287 287 287 288 288 288 288 287 287 287 287 288 288 288 288 288 288 288 288 288 288 288 288 288 288 288 288 289 289 289 289 289 289 289 289 289 289 289 288 288 288 288 288 288 288 288 288 288 288 288 289
301 301 301 300 300 299 299 298 297 296 296 295 294 294 293 292 291 290 290 289 289 288 288 288 288 288 288 288 288 288 288 288 288 287 287 287 287 287 287 288 288 287 287 287 287 288 288 288 288 288 288 288 288 288 288 288 288 288 288 288 288 289 289 289 289 289 289 289 289 289 289 289 289 289 289 288 288 288 288 288 288 288 288 288 288 288
300 299 298 298 297 296 295 294 294 293 293 292 292 291 290 290 289 289 288 288 288 288 288 288 288 288 288 288 288 288 288 288 287 287 287 287 287 287 287 287 287 287 287 287 287 288 288 288 288 288 288 288 288 288 288 288 288 288 288 288 288 289 289 289 289 289 289 289 289 289 289 289 289 289 289 289 289 289 288 288 288 289 289 289 289 289
297 296 295 294 293 293 292 292 291 291 291 290 290 289 289 289 288 288 288 288 288 287 287 287 287 287 287 287 287 287 288 287 287 287 287 287 286 287 287 287 287 287 287 287 287 288 288 288 288 288 288 288 288 288 288 288 288 288 288 288 289 289 289 289 289 289 289 289 289 289 289 289 289 289 289 289 289 289 289 289 289 289 289 289 289 289
294 293 292 292 291 290 290 290 290 290 289 289 289 289 289 289 288 288 288 288 288 287 287 287 287 287 287 287 287 287 287 287 287 287 287 287 287 287 287 287 287 287 287 287 287 287 288 288 288 288 288 287 287 287 288 288 288 288 288 288 289 289 289 289 289 289 289 289 289 289 289 289 289 289 289 289 289 289 289 289 289 289 289 289 289 289
291 291 290 290 289 289 289 289 289 289 289 289 289 288 288 288 288 288 288 288 287 287 287 287 287 287 287 287 287 287 287 287 287 287 287 287 287 287 287 287 287 287 287 287 287 287 287 287 288 288 288 287 287 287 288 288 288 288 288 288 288 289 289 289 289 289 289 289 289 289 289 289 289 289 289 289 289 289 289 289 289 289 289 289 289 289
289 289 289 289 289 289 289 289 288 288 288 288 288 288 288 287 287 287 287 287 287 287 287 287 287 287 286 286 286 286 287 287 287 287 287 287 287 287 287 287 287 287 287 287 287 287 287 287 288 288 287 287 287 287 288 288 288 288 288 288 288 288 288 288 288 288 289 289 289 289 289 289 289 289 289 289 289 289 289 289 289 289 289 289 289 289
288 288 288 288 288 288 288 288 288 288 288 288 288 287 287 287 287 287 287 287 287 287 287 287 287 286 286 286 286 286 287 287 287 287 287 287 287 287 287 287 287 287 287 287 287 287 287 287 287 288 287 287 287 287 287 288 288 288 288 288 288 288 288 288 288 288 288 289 289 289 289 289 289 289 289 289 289 289 289 289 289 289 289 289 289 289
288 288 288 288 288 288 288 288 288 288 288 288 287 287 287 287 287 287 287 287 287 287 287 287 287 287 286 286 286 286 287 287 287 287 287 287 287 287 287 287 287 287 286 286 287 287 287 287 287 287 287 287 287 287 287 288 288 288 288 288 288 288 288 288 288 288 289 289 289 289 289 289 289 289 289 289 289 289 289 289 289 289 289 289 289 289
288 288 288 288 288 288 288 288 287 287 287 287 287 287 287 287 287 287 287 287 287 287 287 287 287 287 286 286 286 286 286 287 287 287 287 287 287 287 287 287 287 287 287 287 287 287 287 287 287 287 287 287 287 287 287 288 288 288 288 288 288 288 288 288 288 288 288 289 289 289 289 289 289 289 289 289 289 289 289 289 289 289 289 289 289 289
288 288 288 288 288 287 287 287 287 287 287 287 287 287 287 287 287 287 287 287 287 287 287 287 286 286 286 286 286 286 286 286 287 287 287 287 287 287 287 287 287 287 287 287 287 287 287 287 287 287 287 287 287 287 287 288 288 288 288 288 288 288 288 288 288 288 288 289 289 289 289 289 289 289 289 289 289 289 289 289 289 289 289 289 289 289
288 288 288 287 287 287 287 287 287 287 287 287 287 287 287 287 286 286 286 287 286 286 286 286 286 286 286 286 286 285 285 286 287 287 287 287 287 287 287 287 287 287 287 287 287 287 287 287 287 287 287 287 287 287 287 288 288 288 288 288 288 288 288 288 288 288 288 289 289 289 289 289 289 289 289 289 289 289 289 289 289 289 289 289 289 289
288 288 287 287 287 287 287 287 287 287 287 287 287 287 287 287 286 286 286 286 286 286 286 286 286 286 286 286 286 285 285 286 286 287 286 286 287 287 287 287 287 287 287 287 287 286 286 286 287 287 287 287 287 287 287 288 288 288 288 288 288 288 288 288 288 288 288 289 289 289 289 289 289 289 289 289 289 289 289 289 289 289 289 289 289 289
287 287 287 287 287 286 286 286 286 286 287 287 287 287 287 287 287 286 286 286 286 286 286 286 286 286 286 286 286 285 285 285 286 286 286 286 286 286 287 286 286 286 286 286 286 286 286 286 286 287 287 287 287 287 287 287 288 288 288 288 287 287 287 288 288 288 288 289 289 289 289 289 289 289 289 290 290 290 289 289 289 289 289 289 289 289
287 287 287 287 286 286 286 286 286 286 286 286 287 287 287 287 287 286 286 286 286 286 286 286 286 286 286 286 286 285 285 285 286 286 286 286 286 286 286 286 286 286 286 286 286 286 286 286 286 286 286 286 287 287 287 287 287 287 287 287 287 287 287 288 288 288 289 289 289 289 289 289 289 289 290 290 290 290 290 289 289 289 289 289 290 290
287 287 287 287 287 287 287 287 286 286 286 286 286 287 287 287 287 286 286 286 286 286 286 286 286 286 286 286 286 285 285 285 286 287 287 287 287 287 287 286 286 286 286 286 286 286 286 286 286 286 286 286 286 286 286 286 286 286 286 286 287 287 287 287 288 288 289 289 289 289 289 289 289 289 290 290 290 290 290 290 289 289 289 289 290 290
286 286 287 287 287 287 287 287 287 287 286 286 286 286 286 286 286 286 286 286 286 286 286 286 286 286 286 286 286 285 285 286 286 287 287 287 287 287 286 286 286 286 286 286 286 286 286 286 286 286 286 286 286 286 286 286 286 286 286 286 286 286 287 287 288 288 289 289 289 289 289 289 289 290 290 290 290 290 290 290 290 289 289 289 289 289
287 287 287 287 287 287 287 287 286 287 286 286 286 286 286 286 286 286 286 286 286 286 286 286 286 286 286 286 286 286 286 286 286 287 287 287 287 287 287 286 286 286 286 286 286 286 286 286 286 286 286 286 286 286 286 285 285 285 285 286 286 286 287 287 288 288 289 289 289 289 289 289 289 290 290 290 290 290 290 290 290 289 289 289 289 289
287 287 287 287 287 287 287 287 287 287 287 286 286 286 286 286 286 286 286 286 286 286 286 286 286 286 286 286 286 286 286 286 286 286 286 286 286 286 286 286 286 286 286 286 286 286 286 286 286 286 286 286 286 286 286 285 285 285 285 285 286 286 287 287 288 288 289 289 289 289 289 289 290 290 290 290 290 290 290 290 289 289 289 289 289 289
288 288 288 288 288 288 288 288 288 287 287 287 287 287 287 287 287 287 287 287 286 286 286 286 286 286 286 286 286 286 286 286 286 286 286 286 286 286 286 286 286 286 286 286 286 286 286 286 286 286 286 286 286 286 286 286 285 285 285 285 286 286 286 287 288 288 288 289 289 289 289 289 289 290 290 290 290 290 290 289 289 289 289 289 289 289
288 288 288 288 288 288 288 288 288 288 288 288 288 288 287 287 287 287 287 287 287 287 287 286 286 286 286 286 286 286 286 285 285 286 286 286 286 286 286 286 286 286 286 286 286 286 285 285 286 286 286 286 286 286 286 286 285 285 285 286 286 286 286 287 288 288 288 289 289 289 289 289 289 290 290 290 290 290 289 289 289 289 289 289 289 289
288 288 287 287 288 288 288 288 288 288 288 288 288 287 287 287 287 287 287 287 287 287 286 286 286 286 286 286 286 286 285 285 285 285 286 286 286 286 286 286 286 286 286 286 286 286 285 285 285 285 285 285 285 286 286 286 286 285 285 286 286 286 286 287 287 288 288 288 289 289 289 289 289 290 290 290 290 289 289 289 289 289 289 289 289 289
287 287 287 287 287 287 287 287 287 287 287 287 287 287 287 287 287 287 287 287 286 286 286 286 286 286 286 286 286 286 286 286 286 286 286 286 286 286 286 286 286 286 286 286 286 286 285 285 285 285 285 285 285 285 286 286 286 285 285 286 286 287 287 287 287 288 288 288 288 289 289 289 289 290 290 290 289 289 289 289 289 289 289 289 289 289
287 287 287 287 287 287 287 287 287 287 287 287 287 287 287 287 287 287 287 286 286 286 286 286 286 286 286 286 286 286 286 286 286 286 286 286 286 286 286 286 286 286 287 287 286 286 286 285 285 285 285 285 285 285 286 286 286 286 286 286 286 287 287 287 287 287 288 288 288 289 289 289 289 289 289 289 289 289 289 289 289 289 289 289 289 289
287 287 288 288 288 287 287 287 287 287 287 287 287 287 287 287 287 287 287 286 286 286 286 286 286 286 286 286 285 285 285 286 286 286 286 286 286 286 286 286 287 287 287 287 287 286 286 286 285 285 285 284 285 285 286 286 286 286 286 286 286 287 287 287 287 287 288 288 288 289 289 289 289 289 289 289 289 289 289 289 289 289 289 289 289 288
288 288 288 288 288 288 287 287 287 287 287 287 286 286 286 286 287 287 286 286 286 286 286 286 286 286 286 286 286 285 285 285 286 286 286 286 286 286 286 286 287 287 287 287 286 286 286 286 285 285 285 284 285 285 285 286 286 286 286 286 286 286 287 287 287 287 287 288 288 289 289 289 289 289 289 289 289 289 289 289 289 289 288 288 288 288
288 288 288 288 288 288 287 287 287 287 287 287 286 286 286 286 286 287 287 286 286 286 286 286 286 286 286 286 286 285 285 285 285 285 286 286 286 286 287 287 287 287 287 287 287 286 286 286 285 285 285 284 285 285 285 285 286 286 286 286 286 286 287 287 287 287 288 288 288 289 289 289 289 289 289 289 289 289 289 288 288 288 288 288 288 288
288 288 288 288 288 288 288 287 287 287 287 286 286 286 286 286 286 286 287 287 286 286 286 286 286 286 286 286 286 285 285 285 285 285 285 286 286 286 286 287 287 287 287 287 287 286 286 286 285 285 284 284 285 285 285 285 285 286 286 286 286 286 287 287 287 287 288 288 288 288 289 289 289 289 289 289 289 288 288 288 288 288 288 288 288 288
288 288 288 288 288 288 288 287 287 287 287 286 286 286 286 286 286 286 287 287 286 286 286 286 286 286 286 286 286 285 285 285 285 285 285 285 285 285 286 286 286 287 287 287 286 286 286 285 285 285 284 284 284 285 285 285 285 285 286 286 286 286 286 287 287 287 288 288 288 288 288 288 288 289 289 289 289 288 288 288 288 288 288 288 288 288
288 288 288 288 288 288 288 287 287 287 287 287 286 286 286 286 286 287 287 287 286 287 287 286 286 286 286 286 286 286 286 286 285 285 284 284 284 284 285 285 285 286 286 286 286 286 285 285 285 285 285 284 284 284 285 285 285 285 285 286 286 286 286 286 287 287 287 288 288 288 288 288 288 288 288 288 288 288 288 288 287 287 287 287 287 287
288 288 288 288 288 288 288 288 287 287 287 287 287 286 286 286 286 287 287 287 287 287 287 287 287 287 287 286 286 286 286 286 286 285 285 284 284 284 284 284 285 285 285 285 285 285 285 285 285 285 285 285 284 284 284 285 285 285 285 285 286 286 286 286 286 287 287 287 287 288 288 288 288 288 288 288 288 288 288 288 287 287 287 287 287 287
288 288 288 288 288 288 288 288 288 288 288 287 287 287 287 287 287 287 287 287 287 287 288 287 287 288 288 288 287 287 287 287 287 286 285 285 285 285 284 284 284 284 284 284 284 284 285 285 285 285 285 285 284 284 284 284 285 285 285 285 285 286 286 286 286 286 287 287 287 287 288 288 288 288 288 288 288 288 288 288 287 287 287 287 287 287
Wind_Speed
26 24 24 24 25 26 26 25 23 20 18 17 17 17 18 19 19 18 18 18 18 18 18 18 16 14 13 12 12 12 12 12 12 12 12 12 12 12 11 12 12 13 13 13 14 14 14 14 14 14 14 15 15 16 16 16 17 17 17 17 17 17 17 17 17 17 17 17 17 17 17 17 16 15 14 13 13 13 14 14 14 13 12 12 12 10
24 23 23 24 25 26 25 23 20 18 17 16 16 18 18 19 18 18 17 17 18 18 17 17 15 13 12 12 12 12 12 12 12 12 12 12 12 12 11 12 12 12 13 14 14 14 15 15 14 14 14 15 15 15 16 16 16 16 17 17 17 17 17 17 17 17 17 17 17 17 18 17 16 15 14 14 14 14 15 15 14 13 13 13 13 12
25 24 24 25 25 24 22 20 18 16 15 15 17 18 19 18 18 17 16 17 17 17 16 15 14 13 12 12 13 13 13 13 13 13 13 13 13 13 13 14 14 14 15 15 16 16 16 16 16 16 16 16 16 16 16 17 17 17 17 17 18 18 18 18 17 17 17 17 17 17 17 16 16 15 14 14 14 14 15 15 15 14 14 14 14 14
26 25 25 25 23 22 20 18 17 15 15 16 18 19 19 18 17 17 16 16 16 16 15 14 13 13 13 13 13 13 13 13 13 14 14 14 15 15 15 16 16 17 17 17 18 18 18 18 18 18 17 17 17 17 17 17 17 17 17 17 18 17 17 17 17 17 17 17 16 16 16 16 15 15 14 14 14 14 15 15 15 14 15 15 15 14
25 24 24 23 21 20 19 18 17 16 16 17 19 19 19 18 17 16 16 16 15 14 14 13 13 13 13 13 13 14 14 14 14 14 15 15 16 16 17 17 18 18 19 19 19 19 19 19 19 18 18 18 17 17 17 17 17 17 16 16 16 16 16 16 16 16 16 15 15 15 15 15 14 14 14 13 13 13 14 14 14 14 14 14 15 14
23 22 22 21 21 20 19 18 17 17 17 19 20 20 19 18 17 17 16 15 14 13 13 12 13 13 13 13 14 14 14 14 15 15 16 16 17 17 17 18 18 19 19 19 19 19 18 18 18 17 17 16 16 16 15 15 15 15 15 14 14 14 14 15 15 15 15 14 14 14 14 14 14 13 13 13 12 12 13 13 13 12 12 13 14 14
20 20 21 21 21 20 19 18 18 18 18 19 20 20 20 19 18 17 16 14 13 12 12 12 13 13 13 14 14 14 15 15 16 16 17 17 17 17 18 18 18 18 18 18 17 17 17 16 16 15 15 14 14 14 14 13 13 13 13 13 13 13 13 14 14 14 14 13 13 13 13 13 13 13 12 12 12 12 12 12 12 11 11 12 12 13
19 20 20 20 20 19 19 19 19 19 19 19 19 20 20 19 18 16 15 14 13 12 12 12 13 13 13 14 14 15 15 16 16 17 17 17 17 17 17 17 17 17 17 16 16 16 15 15 15 14 14 13 13 13 13 13 12 12 12 12 12 12 13 13 13 13 13 13 12 12 12 12 12 12 12 12 11 11 11 11 11 11 11 11 11 12
18 18 19 19 19 18 18 19 20 20 19 19 19 19 19 18 17 16 14 13 13 13 13 13 13 14 14 15 15 16 16 17 17 17 17 17 16 16 16 16 15 15 15 15 15 15 15 14 14 13 13 13 12 12 12 12 12 12 12 12 12 12 12 12 12 12 12 12 12 12 12 12 12 12 12 11 11 11 11 11 11 11 11 11 11 11
19 19 19 19 19 19 18 19 20 21 20 19 19 19 19 17 16 15 14 13 13 13 13 14 14 15 15 16 16 16 17 17 17 16 16 15 15 15 15 14 14 14 14 14 14 14 14 14 14 13 13 12 12 12 12 12 12 12 12 12 12 12 11 11 11 11 11 11 11 11 11 11 11 11 11 11 11 11 11 11 11 11 11 11 11 11
21 21 21 20 21 21 20 20 20 21 21 20 20 20 19 17 15 14 13 13 13 13 14 14 15 15 16 16 16 17 16 16 16 15 15 14 14 14 14 14 14 14 14 14 14 14 14 14 13 13 13 12 12 12 12 11 11 11 11 11 11 11 11 11 10 11 11 11 11 11 11 11 11 11 11 11 11 11 11 11 11 11 11 11 11 12
24 24 23 22 22 22 22 21 21 21 21 20 19 19 18 17 15 13 13 13 13 14 14 14 15 15 16 15 16 16 16 15 14 14 14 13 13 13 13 13 14 14 14 13 13 13 13 13 13 13 12 12 11 11 11 11 11 11 11 11 11 10 10 10 10 10 10 10 10 10 10 10 11 11 11 11 11 11 11 11 11 11 11 11 12 12
26 25 24 24 23 23 22 21 21 20 20 19 18 17 16 15 13 13 13 13 14 14 14 15 15 16 15 15 15 15 15 14 14 14 13 13 13 13 13 13 13 13 13 12 13 13 13 13 13 12 12 11 11 11 10 10 10 11 11 11 10 10 10 10 10 10 10 10 10 10 10 10 10 10 10 11 11 11 11 11 11 11 11 11 12 12
25 24 23 22 22 22 22 21 20 19 19 18 17 15 14 13 13 12 13 13 14 15 15 15 16 16 15 15 15 14 14 14 14 14 13 13 13 13 13 13 12 12 11 11 11 12 12 12 12 12 11 11 11 10 10 10 10 11 11 11 10 10 10 9 9 9 9 9 9 9 9 9 9 10 10 10 10 10 10 11 11 11 11 11 11 12
22 21 21 20 20 20 19 19 18 18 17 16 15 14 13 13 13 13 13 14 15 15 16 16 16 15 15 15 14 14 14 14 14 13 13 13 12 13 13 12 12 11 11 10 11 11 12 12 12 12 11 11 11 10 10 10 10 11 11 11 10 10 10 9 9 9 9 9 9 9 9 9 9 9 9 9 9 10 10 10 10 10 10 10 11 11
18 18 18 18 17 17 17 16 16 15 15 14 14 13 13 13 13 14 14 15 15 16 16 16 15 15 15 14 14 14 14 14 14 13 12 12 12 12 12 12 12 11 10 10 10 11 11 12 12 11 11 11 11 11 10 10 10 10 10 10 10 10 9 9 9 9 8 9 9 9 9 9 9 9 9 9 9 9 9 9 9 9 9 10 10 11
14 14 14 14 14 14 14 14 14 14 13 13 13 13 13 13 14 14 15 15 16 16 16 15 15 14 14 14 13 14 14 14 14 13 13 12 12 12 12 12 12 11 10 10 11 11 11 11 11 11 11 11 11 11 10 10 10 10 10 10 10 10 9 9 8 8 8 8 9 9 9 9 9 9 9 9 9 9 8 8 8 8 9 9 9 10
12 12 12 12 12 12 12 12 12 13 12 12 13 13 13 14 14 15 15 16 16 15 15 15 14 14 13 13 13 13 14 14 14 14 13 12 12 12 12 12 12 11 11 11 11 11 11 11 11 11 11 11 11 10 10 10 10 10 10 10 10 9 9 8 8 8 8 8 9 9 9 9 8 8 8 8 8 8 8 8 8 8 8 8 8 9
10 10 10 10 10 11 11 11 12 12 12 12 12 13 14 15 15 16 16 16 15 15 14 14 14 13 13 13 13 13 14 14 14 14 13 12 12 12 12 12 12 11 11 11 11 11 11 11 11 11 11 11 11 10 10 10 10 10 10 10 9 9 9 8 8 8 8 9 9 9 9 9 8 8 8 8 8 8 8 8 8 8 8 8 8 8
9 9 9 9 10 10 11 11 11 11 11 12 13 13 14 15 15 15 15 15 14 14 14 13 13 13 13 13 13 13 14 14 14 13 12 11 11 11 12 12 11 11 11 11 11 11 11 11 11 11 11 11 11 10 10 10 10 10 10 10 9 9 9 9 9 9 9 9 9 9 9 9 8 8 8 8 8 8 8 8 8 8 8 8 8 7
9 9 10 10 10 11 11 11 11 11 12 13 13 14 14 14 14 14 14 13 13 13 13 12 13 13 13 13 13 13 13 13 13 12 11 10 10 11 11 11 11 11 11 11 11 11 11 11 12 11 11 11 11 10 10 10 10 10 10 10 9 9 9 9 9 9 9 9 9 9 9 9 9 8 8 8 8 8 8 8 8 8 8 8 8 8
10 10 11 11 11 11 11 11 11 12 13 13 13 13 13 13 13 12 12 12 12 12 12 12 12 12 13 13 13 12 12 12 12 12 11 10 10 10 11 11 11 11 11 11 11 11 11 12 12 11 11 11 10 10 10 10 10 10 10 10 10 9 9 9 9 9 9 9 9 9 9 9 9 9 8 8 8 8 8 8 9 9 9 8 8 8
11 11 11 11 11 11 11 11 12 12 13 13 12 12 12 12 12 11 11 11 11 11 11 11 11 12 12 12 12 12 12 11 11 11 11 10 10 10 10 10 10 10 11 11 11 11 12 12 12 11 10 10 10 10 11 11 11 10 10 10 10 10 10 10 9 9 9 9 9 9 9 9 9 9 9 9 9 9 9 9 9 9 9 9 9 9
11 11 11 11 11 11 11 11 12 12 13 12 12 12 12 12 11 11 11 11 11 11 11 11 11 11 12 12 12 12 12 11 11 11 10 10 10 10 10 10 10 10 10 11 11 11 12 12 11 11 10 10 10 11 11 11 11 11 11 10 10 10 10 10 10 9 9 9 9 9 9 9 9 9 9 9 9 9 9 9 9 9 10 10 10 9
10 10 10 10 10 11 11 11 12 12 12 12 12 11 11 11 10 10 10 10 10 11 11 11 11 11 12 12 12 12 11 11 10 10 10 10 9 9 9 9 10 10 10 11 11 11 11 12 11 10 10 10 11 11 12 11 11 11 11 11 11 10 10 10 10 10 10 10 10 10 10 10 10 10 10 10 10 10 10 10 10 10 10 10 10 10
9 9 10 10 10 11 11 11 11 11 11 11 10 10 9 9 9 9 9 9 10 10 10 10 10 11 11 12 12 12 11 10 10 9 9 9 9 9 9 9 10 10 11 11 11 11 11 11 11 10 10 10 11 12 12 12 12 11 11 11 11 11 10 10 10 10 10 10 10 10 10 10 10 10 10 10 10 10 10 11 11 11 11 11 11 11
8 9 9 10 10 10 10 10 10 10 9 9 9 9 8 8 8 8 8 9 9 10 10 10 10 10 10 11 11 11 10 10 9 9 9 9 9 8 8 9 10 10 11 11 11 12 12 11 11 10 11 11 12 12 12 12 12 12 12 11 11 11 11 11 11 11 10 10 11 11 11 11 11 11 11 11 11 11 11 11 11 11 12 12 12 12
8 8 9 9 9 9 9 9 8 8 8 8 8 8 8 8 8 8 9 9 9 9 9 9 9 9 10 10 10 10 9 9 9 9 9 9 9 8 8 9 10 10 11 11 11 12 12 11 11 11 11 12 12 12 12 12 12 12 12 12 12 12 11 11 11 11 11 11 11 11 11 11 11 11 11 11 11 11 11 11 12 12 12 12 12 12
8 8 8 8 8 8 7 7 7 8 8 8 8 8 8 8 8 8 9 9 9 9 9 9 9 9 9 9 9 9 9 9 9 9 9 9 9 9 9 9 10 10 10 11 11 12 12 12 12 12 12 12 12 12 12 13 13 13 13 13 13 12 12 12 12 11 11 11 11 11 11 11 11 11 11 11 11 11 11 12 12 12 13 13 13 12
8 7 7 7 7 7 7 7 7 7 8 8 8 8 7 8 8 8 8 8 8 8 8 8 8 8 8 8 8 9 10 10 9 9 9 10 10 10 10 10 10 10 10 10 11 12 12 12 12 12 12 13 13 13 13 13 13 14 14 13 13 12 12 12 12 12 12 12 12 11 11 11 11 11 11 11 11 11 11 12 12 13 13 13 13 12
7 7 6 6 6 6 7 7 7 7 8 8 8 7 7 7 8 8 8 8 8 8 8 8 8 8 8 8 9 9 10 10 9 9 9 10 11 11 11 11 10 10 10 11 11 11 12 12 12 12 12 13 13 13 14 14 14 14 14 13 13 13 13 13 13 13 13 12 12 12 12 11 11 11 11 11 11 11 11 12 12 13 13 13 13 13
6 6 6 6 6 7 7 7 7 7 8 8 7 7 7 8 8 8 8 8 8 8 8 8 8 8 8 9 9 9 10 10 10 10 10 10 11 12 11 11 11 11 11 11 12 12 10 11 11 11 12 12 13 13 14 14 14 14 14 14 14 13 14 14 14 14 13 13 13 12 12 12 12 12 12 12 12 12 12 12 12 13 13 13 13 13
6 6 6 6 7 7 7 7 7 8 8 8 7 7 7 8 8 8 8 8 8 8 8 9 9 9 9 9 9 9 10 10 11 11 10 11 12 12 12 12 12 12 12 12 13 13 13 13 13 12 12 13 13 13 14 14 14 14 14 14 14 15 15 15 15 14 14 13 13 13 12 12 13 13 12 12 12 12 12 12 12 13 13 13 13 13
6 6 6 7 7 7 7 7 8 8 8 8 8 7 7 8 8 8 8 9 9 9 9 9 9 9 9 9 9 9 10 11 11 11 11 11 12 13 13 13 13 13 13 13 13 14 15 15 15 14 14 14 14 14 14 15 15 15 15 15 15 15 16 15 15 15 14 14 13 13 13 13 13 13 13 13 12 12 12 12 13 13 13 13 13 13
6 6 6 6 7 7 7 7 7 7 8 8 8 8 8 8 8 8 8 9 9 9 9 9 10 9 9 9 9 9 10 11 12 11 11 11 12 12 13 13 13 13 13 14 14 14 15 15 15 16 15 15 15 15 15 15 16 16 16 16 16 16 16 16 16 16 15 14 13 13 13 13 13 13 13 13 13 12 12 12 13 13 13 13 13 13
5 6 6 6 7 7 7 7 7 7 7 8 8 8 8 8 8 8 9 9 9 9 10 10 10 9 9 9 9 10 10 11 12 11 11 11 11 12 13 13 13 13 13 14 14 15 15 15 16 16 16 16 15 15 15 15 16 16 17 17 17 17 17 17 17 16 15 14 14 13 13 14 14 14 13 13 13 12 12 12 13 13 13 13 13 14
6 6 6 7 7 7 7 7 7 7 8 8 8 8 8 8 9 9 9 9 10 10 10 10 10 10 9 9 9 10 11 11 12 12 11 11 12 12 13 13 13 13 13 14 14 15 15 16 17 17 17 16 16 15 15 15 16 16 17 17 17 17 17 17 17 17 16 15 14 14 14 14 14 14 13 13 13 13 13 13 13 13 13 13 13 13
6 6 6 6 6 6 7 7 7 7 7 8 8 8 8 9 9 9 10 10 10 10 11 11 11 10 10 10 10 10 11 11 12 12 12 12 12 13 13 14 14 13 13 14 15 15 16 17 17 17 17 16 16 16 15 15 15 16 16 17 17 17 17 18 18 17 16 16 15 14 14 14 14 14 14 13 13 13 13 13 13 13 13 13 13 13
6 6 6 6 6 6 6 6 6 6 7 7 7 8 8 9 9 10 10 10 11 11 11 11 11 11 11 11 11 11 11 12 12 13 13 13 13 13 14 14 14 14 14 14 15 15 16 17 17 17 17 17 16 16 15 15 15 15 16 17 17 17 17 18 18 18 17 16 15 15 14 14 14 14 14 13 13 13 13 13 13 13 13 13 13 13
5 5 4 4 4 5 5 5 5 6 6 7 7 8 9 9 10 10 11 11 11 11 12 12 12 12 12 12 12 12 12 12 13 13 14 14 14 14 14 14 14 14 14 15 15 15 16 17 17 17 17 17 17 16 15 15 15 15 15 16 15 15 16 17 18 18 17 16 15 15 15 15 14 14 14 14 13 13 13 13 13 13 13 13 12 12
4 4 4 3 3 4 4 5 5 5 6 7 7 8 9 9 10 10 11 11 11 12 12 12 13 13 13 13 12 12 13 13 13 14 14 14 14 14 14 14 14 15 15 15 16 16 16 17 17 17 17 18 18 17 17 16 15 14 15 15 15 15 15 16 17 17 17 17 16 16 15 15 15 15 14 14 13 13 13 14 14 14 14 13 13 12
3 3 3 3 3 4 4 5 5 6 6 7 8 9 10 10 10 11 11 12 12 12 13 13 13 14 14 13 13 13 13 13 14 14 15 15 15 15 15 15 15 15 16 16 16 16 16 17 17 17 17 18 18 18 18 17 16 15 14 15 15 15 15 16 17 17 17 17 17 17 16 16 16 15 15 14 14 14 14 14 14 14 14 14 14 13
4 4 3 3 4 4 4 5 6 7 7 8 9 9 10 10 11 11 12 12 12 13 13 13 14 14 14 13 13 13 13 14 14 14 15 15 15 15 15 16 16 16 16 16 17 17 17 17 17 17 17 18 19 19 19 18 16 15 14 14 15 15 15 15 16 17 17 17 17 17 17 17 16 16 15 14 14 14 14 14 14 14 14 14 14 14
4 4 4 4 4 5 5 6 6 7 7 8 9 10 10 11 11 11 12 12 13 13 13 14 14 14 14 13 12 12 13 14 14 14 14 15 15 15 15 16 16 17 17 17 17 18 18 18 18 18 18 18 19 20 20 19 17 15 14 14 14 15 15 15 15 16 16 17 17 17 17 17 17 16 15 15 15 15 15 15 15 15 15 15 15 14
5 5 5 5 5 5 6 6 7 7 7 8 9 10 11 11 11 12 12 12 13 13 13 14 14 14 13 13 12 12 13 14 14 14 15 15 15 15 15 16 17 17 17 17 18 18 19 19 19 19 19 19 19 20 19 19 17 16 15 14 14 15 15 15 15 16 16 17 17 18 18 17 17 16 16 16 16 16 16 16 16 16 16 15 15 15
6 6 6 6 6 6 6 7 7 7 8 8 9 10 10 11 11 12 12 12 12 13 13 13 13 13 13 13 12 13 13 13 14 14 15 15 15 15 15 16 17 17 18 18 18 19 19 20 20 20 20 20 20 20 19 18 17 16 15 14 14 15 15 15 15 16 16 17 17 18 18 17 17 17 17 17 17 17 17 16 16 16 16 16 16 16
7 7 7 7 7 7 7 7 8 8 8 9 9 10 10 11 11 11 11 12 12 12 12 12 12 13 13 13 13 12 13 13 13 14 15 15 15 16 16 16 17 17 18 18 19 19 20 20 20 21 21 21 21 20 19 18 17 16 15 15 15 15 14 14 15 16 16 16 17 17 18 17 17 17 18 17 17 17 17 17 17 17 17 17 17 17
7 7 7 7 7 8 8 8 8 8 9 9 10 10 11 11 11 11 11 11 11 12 12 12 12 12 12 12 12 12 13 13 13 14 14 15 16 16 16 17 17 18 18 19 19 20 20 20 21 21 21 21 21 20 19 17 16 15 15 15 15 15 14 14 15 15 16 16 16 17 17 17 18 18 18 18 18 18 18 18 18 18 18 18 18 18
8 8 8 8 8 8 9 9 9 9 9 10 10 11 11 12 11 11 11 11 11 12 12 12 12 12 12 12 12 12 12 13 13 13 14 14 15 16 17 17 18 18 19 19 20 20 20 21 21 21 21 21 20 19 18 17 16 15 16 16 16 15 14 14 15 15 15 15 16 17 17 17 18 18 18 19 19 19 18 19 19 19 19 19 19 19
9 9 9 9 9 9 10 10 10 10 10 10 11 11 11 12 12 12 12 12 12 12 12 12 12 12 12 12 12 12 13 13 13 13 13 14 15 15 16 17 18 19 19 20 20 21 21 21 21 21 21 20 19 19 18 17 17 16 16 16 16 15 15 14 15 15 15 15 16 16 17 17 18 18 18 19 19 19 19 19 19 19 19 20 20 20
11 11 11 11 10 10 11 11 11 11 11 11 11 11 12 12 12 12 12 12 12 12 12 12 12 12 12 12 12 13 13 14 14 14 14 14 15 15 16 17 17 18 19 20 20 21 21 22 22 21 20 19 18 17 17 17 17 17 17 16 16 15 14 14 14 15 15 16 16 17 17 18 18 19 19 19 20 20 20 20 19 19 20 21 21 21
Wind_Direction
255 249 243 240 241 242 244 246 246 245 247 252 259 267 273 274 273 273 273 275 277 279 279 277 274 269 263 257 253 250 248 247 246 246 247 248 250 253 255 257 258 258 258 258 258 257 256 255 254 253 253 254 255 256 258 259 261 262 264 265 266 268 269 271 272 273 272 273 273 275 277 279 281 282 280 276 272 269 268 267 265 262 259 259 258 256
254 247 241 240 240 241 242 241 240 241 246 255 265 273 276 275 273 271 271 272 274 275 274 272 268 262 255 251 248 246 245 245 245 246 247 249 250 251 252 253 253 254 255 255 256 257 257 257 257 256 256 256 257 257 258 260 261 263 264 266 267 268 270 271 272 273 273 274 275 276 277 279 279 278 275 272 269 267 266 265 262 258 254 254 253 251
255 248 243 242 241 239 237 236 236 240 250 263 273 278 278 276 273 271 271 273 273 272 269 265 260 255 249 246 244 243 243 244 246 248 251 253 254 255 255 255 254 253 253 253 254 255 256 256 257 256 256 256 257 258 259 260 261 263 265 266 267 269 270 271 271 272 272 273 274 275 276 276 275 274 271 269 266 264 263 263 261 257 251 251 250 248
257 252 249 246 242 238 235 234 237 246 260 272 280 281 280 276 272 271 272 273 272 268 263 258 253 248 244 242 242 242 243 245 248 251 254 257 259 261 262 262 261 259 258 257 257 256 257 256 256 256 255 256 256 257 258 260 261 263 264 266 268 269 270 270 271 271 271 272 273 274 274 274 273 272 270 267 264 262 261 262 262 259 254 252 250 248
262 257 253 247 241 237 236 238 245 257 270 278 282 283 280 275 272 271 271 271 268 263 257 251 246 243 241 240 241 242 245 247 251 254 258 261 264 266 267 268 268 267 265 264 263 262 261 259 258 257 256 257 257 258 259 260 262 263 264 266 268 269 270 271 271 271 271 272 272 273 273 273 273 272 270 268 265 262 261 262 263 262 259 255 251 248
265 260 254 247 241 238 240 245 254 264 273 280 282 282 279 275 271 269 269 267 263 256 250 244 241 240 239 240 242 244 247 251 255 258 262 265 267 269 270 271 272 272 271 270 269 267 265 263 261 260 260 260 261 262 263 264 265 266 267 269 270 270 270 270 271 271 272 273 273 273 273 273 273 273 271 269 266 263 262 262 262 262 260 257 253 250
263 258 253 247 243 242 245 252 260 268 274 279 281 280 277 273 269 267 265 262 256 249 243 239 238 239 239 241 243 247 251 255 258 262 264 267 269 270 272 273 273 274 274 273 272 270 268 267 265 265 265 266 267 268 269 271 272 273 274 273 273 272 271 271 272 273 274 275 275 274 274 273 272 272 271 269 266 264 262 261 261 261 260 257 254 251
258 254 251 247 245 247 251 257 263 268 273 277 279 277 273 270 267 264 260 255 249 242 238 236 236 237 240 243 247 251 254 258 261 264 266 268 269 270 271 272 273 274 274 273 272 271 270 270 270 270 271 272 274 276 277 278 279 280 279 278 276 274 273 273 275 276 277 277 276 275 274 272 271 270 269 268 265 264 262 261 260 259 258 257 255 252
256 254 252 252 251 253 256 261 264 267 271 274 275 273 270 267 263 260 255 248 243 239 237 236 237 239 243 247 251 255 259 261 263 265 267 268 269 270 271 271 272 272 272 272 272 272 272 272 273 274 275 277 279 281 282 283 283 283 282 280 278 277 277 277 277 278 278 277 277 276 274 272 271 269 268 267 265 264 262 260 259 258 257 256 255 253
255 256 257 258 258 259 260 262 265 268 270 271 271 269 265 262 259 254 247 242 240 239 239 240 242 245 250 254 258 261 263 264 265 266 266 267 268 269 270 271 272 272 272 272 272 272 273 274 275 276 278 280 281 283 283 283 283 282 280 279 279 278 279 279 279 279 278 278 277 276 275 273 271 269 268 267 265 264 262 260 259 257 257 257 256 255
254 256 259 260 260 260 260 262 265 267 269 268 266 264 261 257 253 248 243 241 241 242 244 246 249 252 257 261 264 265 266 266 266 265 265 265 266 267 269 270 271 272 272 272 273 273 274 274 276 277 279 280 282 282 282 282 281 280 279 279 279 279 280 281 280 280 279 279 278 277 276 274 273 271 269 268 266 265 264 262 260 258 257 257 257 256
253 255 258 259 260 260 260 261 263 265 265 263 259 257 255 253 250 246 242 243 245 247 250 253 256 259 261 263 265 267 267 266 265 264 264 264 265 267 268 269 269 270 270 271 271 271 272 274 275 277 278 280 281 281 281 280 280 279 279 279 280 281 282 282 282 282 281 281 280 279 278 276 274 272 270 269 268 267 266 264 262 260 258 256 256 256
253 254 256 257 258 259 259 259 259 259 259 257 255 254 253 251 249 246 243 245 249 252 255 259 261 263 263 263 264 264 265 264 263 263 264 264 265 266 266 266 266 266 266 266 267 268 270 272 274 276 278 280 280 281 280 280 280 280 281 281 282 283 283 284 284 285 284 284 283 283 281 279 277 275 273 272 271 269 268 266 265 262 259 257 255 254
252 253 253 253 253 254 256 257 256 255 255 254 254 253 252 250 248 246 246 248 252 256 259 261 262 263 263 262 262 261 262 262 262 263 264 265 267 267 266 265 264 262 262 262 262 265 268 271 274 277 279 281 281 281 281 281 281 282 282 283 284 285 285 286 286 287 287 287 287 286 285 283 281 279 277 275 274 272 270 268 266 264 261 258 255 253
251 251 250 250 250 250 251 252 253 253 253 252 251 248 246 245 245 247 249 252 256 259 261 261 261 261 260 260 260 261 261 262 262 264 265 267 269 268 267 266 264 262 260 261 262 265 268 271 275 278 280 281 281 281 281 282 283 283 284 285 285 286 287 288 288 289 289 289 289 289 287 285 283 282 280 278 276 274 272 270 268 266 263 260 257 253
249 248 247 247 247 247 247 248 248 248 248 247 245 243 242 243 246 249 252 255 259 261 261 259 258 257 257 259 260 261 262 263 264 265 267 269 269 268 267 266 265 264 263 263 264 267 269 272 275 278 280 280 280 281 281 282 283 283 284 285 285 286 287 288 288 289 290 290 289 288 288 286 285 283 281 279 277 275 273 271 269 267 266 263 260 257
244 243 242 241 241 241 241 241 241 241 242 242 242 242 243 245 248 252 254 256 258 259 258 257 254 252 253 255 259 262 264 265 266 267 267 269 268 266 265 265 265 266 265 266 267 269 272 274 276 277 278 279 279 280 281 281 282 282 282 283 283 284 285 286 287 287 288 287 287 286 286 285 284 282 281 279 278 276 274 272 270 268 267 266 265 264
236 234 233 232 233 234 234 235 236 238 240 241 243 244 246 248 250 252 254 255 254 254 254 254 253 252 254 255 256 259 264 264 265 266 266 266 265 264 263 264 265 266 267 268 269 271 273 275 276 277 277 278 279 279 280 280 280 280 280 280 280 281 281 282 283 283 283 283 283 283 283 282 282 281 281 280 280 279 277 275 272 270 270 270 271 271
228 226 226 226 228 230 232 234 237 240 243 244 246 247 248 250 251 251 251 250 249 248 249 251 253 255 257 258 258 258 260 262 263 264 263 263 262 262 262 263 264 266 268 269 271 272 274 275 275 276 276 277 278 278 278 278 277 277 276 276 276 276 277 278 278 278 278 278 279 279 279 279 280 280 280 280 281 281 280 278 277 275 274 275 277 278
221 223 223 225 228 231 235 238 242 244 245 247 248 248 248 249 249 248 246 245 245 245 247 250 253 256 257 258 258 258 258 260 261 262 261 259 258 258 260 262 264 266 268 269 271 272 273 274 274 275 275 276 277 277 276 276 275 273 272 272 272 273 273 273 274 274 274 275 276 276 277 277 277 278 278 279 279 279 279 279 279 278 278 278 280 282
224 226 229 232 234 236 239 242 244 244 244 245 246 245 245 245 244 243 242 242 242 244 246 249 252 255 257 257 257 258 258 259 260 260 259 255 254 255 258 261 263 266 267 268 270 271 272 273 273 274 275 276 276 276 275 273 271 270 269 269 269 269 270 270 271 271 272 273 274 275 275 276 276 276 276 276 276 276 277 277 277 277 278 279 279 281
233 234 237 239 239 239 240 241 242 243 243 243 242 241 240 239 238 237 239 240 241 243 245 247 250 253 256 257 258 258 258 258 258 258 257 254 251 252 257 260 262 264 266 268 269 270 271 272 273 274 275 276 276 274 272 270 268 267 267 266 267 267 267 268 269 270 271 273 273 274 275 275 276 275 275 274 274 274 274 274 275 276 277 277 278 279
241 241 242 243 242 240 239 238 239 240 241 238 236 235 235 234 233 234 237 239 241 243 246 249 250 252 253 255 256 257 256 256 256 257 257 254 250 251 256 259 261 262 264 266 268 270 271 272 273 274 275 275 273 271 269 266 265 264 264 264 264 265 265 266 268 269 270 272 273 274 275 275 276 276 276 275 274 274 273 273 274 274 275 275 275 276
244 243 243 243 242 239 238 236 237 237 237 235 233 233 234 235 236 238 240 243 245 247 249 250 249 249 250 252 253 254 254 254 255 256 256 254 251 251 255 258 259 260 262 264 266 268 270 271 272 273 273 271 269 266 264 263 262 261 261 261 262 262 263 264 265 267 268 270 272 273 274 275 276 277 277 277 276 275 274 273 272 272 272 273 273 273
245 243 242 242 240 238 236 235 234 234 234 234 233 234 236 237 239 242 244 246 247 247 247 246 246 246 247 249 250 251 253 254 254 255 255 254 251 250 253 256 258 259 260 262 264 266 267 269 270 271 269 266 264 262 260 259 258 257 257 257 257 258 258 260 261 263 265 268 269 271 273 274 275 276 276 276 276 275 274 273 273 272 271 271 271 271
245 242 240 239 237 235 234 233 232 232 233 233 234 234 236 237 239 240 242 242 244 244 244 243 243 243 244 246 247 248 251 253 254 253 253 252 249 247 250 253 256 259 259 261 262 263 264 265 267 266 264 261 259 258 257 255 254 253 252 252 252 252 253 254 256 259 261 264 266 268 270 271 273 274 275 275 276 276 275 274 273 272 271 270 269 268
240 237 235 233 231 230 230 229 229 230 231 233 233 234 236 237 238 239 240 240 241 241 241 241 240 241 243 245 247 249 251 253 253 253 252 252 249 247 248 251 255 258 259 260 261 262 262 263 263 263 260 258 257 256 254 252 250 248 247 246 245 246 247 250 253 256 259 262 264 265 267 268 270 271 273 274 275 275 275 275 274 273 271 270 269 268
232 230 228 227 227 226 226 227 228 229 230 232 233 233 234 236 238 240 240 239 239 240 240 240 241 242 244 246 249 252 254 255 254 253 253 254 254 252 251 252 254 257 259 258 259 261 261 261 261 261 259 258 256 255 252 249 247 244 242 241 241 243 245 249 253 256 259 261 263 264 266 267 269 270 272 273 274 275 275 275 274 273 272 270 269 268
225 224 224 224 225 226 227 229 230 231 232 233 234 234 235 237 240 241 240 239 239 240 241 242 243 244 246 248 252 255 256 257 257 257 257 259 260 259 256 255 255 257 259 258 258 259 259 260 260 260 259 257 255 252 249 246 243 241 240 239 240 242 246 251 255 258 261 263 265 266 267 269 270 272 273 274 274 275 275 275 274 273 272 271 270 269
222 222 222 224 225 228 229 231 233 233 233 234 235 235 235 237 239 240 239 240 240 241 242 243 244 246 248 249 251 254 256 258 259 259 261 262 263 262 260 259 258 258 258 258 257 257 258 259 258 258 257 256 253 250 246 243 241 239 239 240 242 245 250 254 258 261 263 265 267 268 270 272 273 274 275 276 276 276 275 275 274 274 273 272 271 269
218 219 219 221 224 226 228 230 232 233 233 234 233 232 231 233 235 236 237 239 240 240 241 243 244 246 247 249 251 251 252 255 257 258 260 262 263 263 262 261 260 258 257 257 258 260 260 260 258 256 254 253 250 248 245 242 241 240 241 242 244 249 253 257 260 262 264 266 268 270 272 274 276 277 278 278 278 277 277 276 275 275 274 274 272 271
214 214 215 217 219 221 224 226 229 231 233 233 231 228 225 226 229 232 234 236 238 239 240 241 243 244 246 249 251 251 252 253 254 255 256 260 262 263 263 263 262 259 258 257 258 260 260 260 259 257 253 250 247 246 245 244 243 242 243 245 247 251 255 258 260 262 263 266 268 271 274 276 277 278 278 278 278 278 277 276 276 276 276 276 275 274
210 210 211 213 215 217 219 222 225 228 231 233 232 229 224 223 225 228 232 235 237 239 240 242 244 245 246 248 251 253 254 254 253 254 255 258 261 263 264 265 265 264 262 259 259 259 259 260 259 258 254 250 247 246 246 246 247 247 248 249 251 254 257 258 260 261 262 265 268 270 273 275 276 277 277 277 277 277 277 277 277 277 278 278 277 277
206 207 208 210 213 214 217 219 222 225 228 231 233 231 229 227 227 228 231 235 238 241 243 245 247 248 248 249 250 251 253 254 255 255 256 258 262 264 267 267 268 268 267 265 262 261 261 260 260 257 254 252 250 248 248 249 251 252 253 253 255 257 258 259 259 260 262 264 267 270 272 273 274 274 275 275 275 275 275 276 276 277 278 278 278 278
207 209 210 211 214 216 218 220 222 224 227 230 232 234 234 233 233 234 235 237 240 243 245 247 249 250 251 251 250 249 250 255 258 259 259 261 264 267 268 268 269 270 270 269 266 264 263 261 260 258 256 253 252 251 251 253 254 256 257 257 257 257 258 259 260 261 263 265 267 269 270 271 271 271 272 272 272 273 273 273 274 275 276 277 277 278
211 213 215 217 218 220 222 223 225 227 230 232 234 236 238 240 241 242 243 245 247 248 249 250 251 252 252 253 252 250 251 257 262 265 265 265 266 269 269 269 270 270 270 270 269 267 266 263 261 259 258 255 252 251 251 253 255 256 257 258 258 258 258 259 261 262 264 265 267 268 268 268 268 268 269 269 269 270 270 271 272 273 274 275 276 277
212 214 216 218 219 221 223 225 227 229 232 235 239 242 245 247 249 250 252 253 255 256 257 257 257 257 256 255 254 255 256 261 264 267 267 267 267 268 269 270 270 269 269 270 270 269 268 267 265 263 261 259 256 252 250 250 251 253 255 256 256 256 257 259 260 262 264 265 267 267 266 266 265 265 265 266 266 267 267 268 269 270 271 273 274 275
209 211 213 215 216 218 220 222 225 228 232 235 240 244 248 250 253 255 256 258 260 261 262 263 264 264 263 262 260 259 261 263 265 266 267 266 265 266 267 269 269 269 268 269 269 270 270 270 269 268 266 264 261 258 255 251 249 248 249 251 252 253 255 257 260 262 263 264 265 265 264 263 262 262 262 263 263 264 265 266 267 268 269 270 271 273
205 208 211 213 216 219 222 226 228 232 236 240 243 245 248 251 253 255 257 259 261 262 264 266 267 268 268 267 266 264 264 264 265 266 266 265 265 264 266 268 269 269 269 268 268 269 270 271 272 272 271 270 268 264 260 255 251 247 245 246 247 249 252 255 258 261 262 264 264 264 262 261 260 259 259 259 260 261 262 263 264 265 266 267 269 271
205 208 212 215 218 223 229 234 238 242 244 246 247 249 251 253 255 256 258 260 261 262 264 265 267 268 268 268 268 266 265 265 265 265 266 266 266 266 266 268 269 271 270 270 269 269 270 271 272 273 273 273 272 269 264 259 254 249 245 243 241 243 248 253 256 259 261 263 263 262 261 259 258 257 257 257 258 259 260 261 262 263 264 265 266 268
212 217 222 225 230 237 243 247 251 252 253 255 256 258 258 259 260 261 262 263 264 264 265 266 267 267 268 268 268 267 266 265 265 266 267 268 269 270 270 270 271 272 273 273 272 272 271 272 273 273 273 273 272 269 265 261 257 253 249 244 240 239 242 248 254 258 261 262 262 261 260 259 258 256 256 255 255 256 257 258 259 261 263 264 265 266
230 235 240 242 246 250 255 260 263 263 264 264 264 264 264 265 265 266 266 266 266 266 267 267 267 267 267 267 267 267 266 265 266 267 268 269 271 272 273 273 273 274 275 275 275 275 274 273 273 273 273 273 272 270 267 263 260 256 253 249 245 241 242 247 252 256 259 261 262 261 260 258 257 256 255 254 254 254 255 256 258 259 261 263 264 265
235 243 248 251 254 258 261 264 265 265 266 266 265 265 266 266 266 267 267 267 266 266 266 266 266 266 266 267 267 266 265 264 264 265 266 267 268 270 271 272 273 274 274 276 276 276 276 275 273 273 273 272 271 270 268 265 263 260 257 254 250 248 248 251 254 256 258 260 261 261 260 258 257 256 254 253 252 253 254 255 256 258 260 261 263 265
233 240 246 251 254 257 260 261 261 263 264 265 265 265 266 266 266 266 266 266 266 265 265 266 266 267 267 266 266 266 265 265 264 264 264 265 266 267 269 271 272 273 274 275 276 277 277 276 275 274 272 271 270 270 269 268 266 263 260 257 254 252 251 253 256 258 260 260 260 260 259 258 257 255 253 252 252 252 253 255 256 257 259 260 262 263
233 240 246 250 254 258 259 261 263 265 267 267 267 267 268 269 269 268 268 267 267 267 267 267 268 268 268 267 265 264 264 266 266 266 266 266 267 268 269 271 273 274 275 275 276 276 277 277 276 275 273 271 271 270 271 270 269 267 264 261 258 256 255 255 258 260 261 261 261 260 259 258 256 254 252 252 252 253 255 256 257 258 259 260 261 262
235 242 248 254 258 262 264 268 271 272 273 272 271 270 271 272 272 272 271 270 270 269 269 269 270 269 269 267 265 264 264 265 268 269 270 271 271 272 272 273 274 275 276 277 277 277 277 278 278 277 276 274 273 272 272 272 272 270 268 265 262 260 260 261 262 262 261 261 261 260 259 258 256 254 251 251 251 253 255 256 257 258 259 260 261 262
240 245 250 256 261 264 268 272 275 275 275 274 273 272 273 273 274 274 273 272 271 270 270 270 269 269 268 268 266 265 264 264 266 268 271 273 274 275 275 275 275 276 276 277 278 278 278 278 278 278 278 277 276 275 274 273 273 271 270 268 266 264 265 266 265 263 261 261 260 259 260 259 256 254 253 252 252 253 255 257 258 259 259 260 262 263
243 247 251 255 259 263 266 269 271 273 273 273 273 274 274 274 275 275 274 273 272 271 270 270 269 269 268 268 267 266 265 264 264 265 267 269 271 273 274 275 276 276 277 277 277 277 278 278 278 278 278 278 278 278 277 276 274 272 270 269 268 268 269 269 266 264 263 261 260 259 259 258 256 255 254 254 253 253 254 256 258 259 260 261 263 264
246 248 251 254 257 260 262 265 268 270 271 272 273 274 275 277 277 277 276 276 275 274 274 273 272 271 270 269 269 268 267 266 265 265 265 265 267 269 271 273 275 276 277 278 279 278 278 278 278 278 278 278 278 278 278 276 274 271 269 269 269 270 271 270 268 265 263 261 259 259 258 257 257 256 256 255 255 254 254 255 256 259 261 262 263 264
248 249 252 254 256 258 261 264 267 270 272 274 275 276 278 280 281 281 281 280 279 278 277 277 276 275 274 273 273 272 271 271 271 269 267 266 266 266 268 270 272 274 276 278 279 279 279 279 279 278 278 278 278 278 277 276 273 271 269 268 269 270 270 269 267 265 263 261 259 259 258 258 258 258 257 257 257 256 255 254 254 255 258 261 263 264
249 251 253 256 258 260 262 265 268 271 273 275 277 278 280 281 282 283 283 282 281 280 280 279 278 278 278 279 279 278 277 278 277 276 274 272 271 270 270 271 272 273 274 275 276 277 278 279 279 278 278 278 278 276 274 273 272 270 269 268 268 268 267 265 263 262 261 261 260 260 260 259 259 259 259 259 260 260 259 256 253 252 255 257 260 262